This is the latest recevied weather packets stored in our database for station/object YB3RDW-13. If no packets are shown the sender has not sent any weather packets the latest 1 day(s).
| Time | Temp. | Humidity | Pressure | Rain* | Wind** | Luminosity | Snow |
|---|---|---|---|---|---|---|---|
| 1778053318 | 33.33° C | 56% | 1009 hPa | 0 mm | 2.24 m/s, 314° | 285 W/m² | - |
| 1778053017 | 32.78° C | 56% | 1009 hPa | 0 mm | 3.58 m/s, 148° | 313 W/m² | - |
| 1778052718 | 33.33° C | 56% | 1009 hPa | 0 mm | 4.02 m/s, 279° | 336 W/m² | - |
| 1778052417 | 33.33° C | 55% | 1009 hPa | 0 mm | 4.47 m/s, 285° | 339 W/m² | - |
| 1778052117 | 32.78° C | 55% | 1009 hPa | 0 mm | 4.02 m/s, 320° | 366 W/m² | - |
| 1778051817 | 33.33° C | 55% | 1009 hPa | 0 mm | 4.47 m/s, 323° | 393 W/m² | - |
| 1778051517 | 33.33° C | 54% | 1009 hPa | 0 mm | 4.02 m/s, 300° | 402 W/m² | - |
| 1778051217 | 33.33° C | 54% | 1009 hPa | 0 mm | 3.58 m/s, 320° | 420 W/m² | - |
| 1778050918 | 33.33° C | 55% | 1009 hPa | 0 mm | 3.58 m/s, 294° | 416 W/m² | - |
| 1778050617 | 33.33° C | 54% | 1009 hPa | 0 mm | 3.13 m/s, 275° | 428 W/m² | - |
| 1778050317 | 33.33° C | 54% | 1009 hPa | 0 mm | 3.13 m/s, 262° | 444 W/m² | - |
| 1778050017 | 33.33° C | 57% | 1009 hPa | 0 mm | 4.47 m/s, 217° | 475 W/m² | - |
| 1778049718 | 33.33° C | 57% | 1009 hPa | 0 mm | 2.24 m/s, 292° | 485 W/m² | - |
| 1778049417 | 33.33° C | 58% | 1009 hPa | 0 mm | 4.02 m/s, 343° | 479 W/m² | - |
| 1778049117 | 33.33° C | 57% | 1009 hPa | 0 mm | 2.24 m/s, 321° | 517 W/m² | - |
| 1778048817 | 33.33° C | 58% | 1009 hPa | 0 mm | 1.34 m/s, 310° | 510 W/m² | - |
| 1778048517 | 33.33° C | 59% | 1009 hPa | 0 mm | 2.24 m/s, 282° | 526 W/m² | - |
| 1778048218 | 33.33° C | 60% | 1010 hPa | 0 mm | 3.13 m/s, 306° | 545 W/m² | - |
| 1778047918 | 33.33° C | 57% | 1010 hPa | 0 mm | 2.68 m/s, 339° | 542 W/m² | - |
| 1778047617 | 33.33° C | 56% | 1010 hPa | 0 mm | 3.58 m/s, 277° | 564 W/m² | - |
| 1778047317 | 33.33° C | 56% | 1010 hPa | 0 mm | 3.58 m/s, 262° | 590 W/m² | - |
| 1778047019 | 33.33° C | 56% | 1010 hPa | 0 mm | 3.58 m/s, 267° | 590 W/m² | - |
| 1778046717 | 33.33° C | 57% | 1010 hPa | 0 mm | 2.24 m/s, 195° | 598 W/m² | - |
| 1778046417 | 33.33° C | 56% | 1010 hPa | 0 mm | 2.68 m/s, 284° | 617 W/m² | - |
| 1778046117 | 33.89° C | 56% | 1010 hPa | 0 mm | 1.79 m/s, 211° | 616 W/m² | - |
* Rain latest hour (hover to see other rain measurements)
** Current wind speed in m/s (hover to see current wind gust speed)